TJMZ/MAZ METAR and TAF weather

Enter ICAO airport designator
Station Type Date Time Source
TJMZ METAR 2017/08/10 15:50 UTC NOAA

TJMZ 101550Z 11009KT 10SM SCT050 33/24


Station Type Date Time Source
TJMZ Decoded METAR 2017/08/10 15:50 UTC NOAA

Mayaguez, Eugenio Maria de Hostos Airport, PR, United States (TJMZ) 18-16N 067-09W
Aug 10, 2017 - 11:50 AM EDT / 2017.08.10 1550 UTC
Wind: from the ESE (110 degrees) at 10 MPH (9 KT):0
Visibility: 10 mile(s):0
Sky conditions: partly cloudy
Temperature: 91 F (33 C)
Heat index: 101.5 F (38.6 C):1
Dew Point: 75 F (24 C)
Relative Humidity: 59%
ob: TJMZ 101550Z 11009KT 10SM SCT050 33/24
cycle: 16

Station Type Date Time Source
TJMZ TAF 2019/04/24 18:54 UTC NOAA

TAF TJMZ 241740Z 2418/2518 29010KT P6SM VCSH SCT030 SCT050
FM242300 VRB06KT P6SM FEW030
FM251400 27010KT P6SM FEW030
FM251700 27010KT P6SM VCSH SCT030 SCT050
AMD NOT SKED

Example: see airport list